Nadi, Fiji

9:18 AM +13 on November 21, 2017 (GMT +1300)
Nadi International

Weather History for NFFN - October, 2012

Change the Weather History Date:

Thursday, October 18, 2012

  Actual Average Record
Temperature  
Mean Temperature 80 °F -  
Max Temperature 86 °F 84 °F 92 °F (2017)
Min Temperature 74 °F 69 °F 64 °F (2014)
Cooling Degree Days 15    
Growing Degree Days 30 (Base 50)    
Moisture  
Dew Point 73 °F    
Average Humidity 82    
Maximum Humidity 97    
Minimum Humidity 59    
Precipitation  
Precipitation 0.00 in 0.16 in - ()
Sea Level Pressure  
Sea Level Pressure 29.89 in    
Wind  
Wind Speed 3 mph ()    
Max Wind Speed 13 mph    
Max Gust Speed -    
Visibility 12.0 miles    
Events      
Averages and records for this station are not official NWS values.
T = Trace of Precipitation, MM = Missing Value Source: Averaged Metar Reports

Daily Weather History Graph

Daily Weather History Graph

Search for Another Location

Airport or City:

Trip Planner

Search our weather history database for the weather conditions in past years. The results will help you decide how hot, cold, wet, or windy it might be!

Date:

Astronomy

Oct. 18, 2012 Rise Set
Actual Time 5:39 AM +12 6:11 PM +12
Civil Twilight 5:17 AM +12 6:33 PM +12
Nautical Twilight 4:51 AM +12 6:59 PM +12
Astronomical Twilight 4:25 AM +12 7:25 PM +12
Moon 7:36 AM +12 (10/18) 9:00 PM +12 (10/18)
Length of Visible Light 13h 16m
Length of Day
12h 32m
Waxing Crescent, 9% of the Moon is Illuminated
Oct 18
Waxing Crescent
Oct 22
First Quarter
Oct 30
Full
Nov 7
Last Quarter
Nov 14
New

Hourly Weather History & Observations

Time (+12) Temp. Heat Index Dew Point Humidity Pressure Visibility Wind Dir Wind Speed Gust Speed Precip Events Conditions
12:00 AM 76 °F - 73 °F 88% 29.92 in 12 mi Calm Calm - -   Partly Cloudy
12:00 AM 77.0 °F - 73.4 °F 89% 29.92 in 24.9 mi Calm Calm - N/A   Scattered Clouds
1:00 AM 75.2 °F - 73.4 °F 94% 29.89 in 24.9 mi Calm Calm - N/A   Scattered Clouds
2:00 AM 75.2 °F - 73.4 °F 94% 29.86 in 24.9 mi Calm Calm - N/A   Mostly Cloudy
3:00 AM 75 °F - 73 °F 92% 29.88 in 12 mi Calm Calm - -   Partly Cloudy
3:00 AM 75.2 °F - 73.4 °F 94% 29.86 in 24.9 mi Calm Calm - N/A   Mostly Cloudy
4:00 AM 75.2 °F - 73.4 °F 94% 29.86 in 24.9 mi Calm Calm - N/A   Mostly Cloudy
5:00 AM 75.2 °F - 73.4 °F 94% 29.86 in 24.9 mi Calm Calm - N/A   Mostly Cloudy
6:00 AM 74 °F - 73 °F 97% 29.90 in 12 mi ESE 5.8 mph - -   Partly Cloudy
6:00 AM 75.2 °F - 73.4 °F 94% 29.89 in 24.9 mi ESE 5.8 mph - N/A   Mostly Cloudy
7:00 AM 75.2 °F - 73.4 °F 94% 29.92 in 31.1 mi East 5.8 mph - N/A   Mostly Cloudy
8:00 AM 80.6 °F 85.4 °F 73.4 °F 79% 29.92 in 31.1 mi SSE 5.8 mph - N/A   Scattered Clouds
9:00 AM 83 °F - 74 °F 68% 29.93 in 31 mi Calm Calm - -   Partly Cloudy
9:00 AM 82.4 °F 88.2 °F 73.4 °F 74% 29.92 in 31.1 mi Calm Calm - N/A   Scattered Clouds
10:00 AM 84.2 °F 89.6 °F 71.6 °F 66% 29.92 in 31.1 mi WNW 6.9 mph - N/A   Scattered Clouds
11:00 AM 84.2 °F 88.4 °F 69.8 °F 62% 29.89 in 31.1 mi WSW 5.8 mph - N/A   Scattered Clouds
12:00 PM 86 °F - 74 °F 59% 29.89 in 31 mi WNW 8.1 mph - -   Partly Cloudy
12:00 PM 86.0 °F 93.4 °F 73.4 °F 66% 29.89 in 31.1 mi WNW 8.1 mph - N/A   Scattered Clouds
1:00 PM 86.0 °F 93.4 °F 73.4 °F 66% 29.86 in 31.1 mi WNW 11.5 mph - N/A   Scattered Clouds
2:00 PM 84.2 °F 90.9 °F 73.4 °F 70% 29.86 in 31.1 mi WNW 10.4 mph - N/A   Scattered Clouds
3:00 PM 83 °F - 71 °F 60% 29.86 in 31 mi West 9.2 mph - -   Partly Cloudy
3:00 PM 82.4 °F 87.2 °F 71.6 °F 70% 29.86 in 31.1 mi West 9.2 mph - N/A   Mostly Cloudy
4:00 PM 84.2 °F 90.9 °F 73.4 °F 70% 29.86 in 31.1 mi West 12.7 mph - N/A   Mostly Cloudy
5:00 PM 80.6 °F 86.2 °F 75.2 °F 84% 29.86 in 31.1 mi SSW 8.1 mph - N/A   Mostly Cloudy
6:00 PM 79 °F - 74 °F 80% 29.89 in 12 mi SSW 3.5 mph - -   Partly Cloudy
6:00 PM 78.8 °F - 73.4 °F 83% 29.89 in 28.0 mi SSW 3.5 mph - N/A   Mostly Cloudy
7:00 PM 78.8 °F - 73.4 °F 83% 29.89 in 28.0 mi NNE 6.9 mph - N/A   Mostly Cloudy
8:00 PM 77.0 °F - 73.4 °F 89% 29.89 in 28.0 mi ESE 4.6 mph - N/A   Mostly Cloudy
9:00 PM 77 °F - 74 °F 89% 29.93 in 12 mi East 4.6 mph - -   Partly Cloudy
9:00 PM 77.0 °F - 75.2 °F 94% 29.92 in 28.0 mi East 4.6 mph - N/A   Scattered Clouds
10:00 PM 77.0 °F - 73.4 °F 89% 29.95 in 28.0 mi Calm Calm - N/A   Scattered Clouds
11:00 PM 77.0 °F - 73.4 °F 89% 29.92 in 24.9 mi Calm Calm - N/A   Scattered Clouds